Wind_Speed
31 28 25 24 22 20 18 16 13 11 11 10 10 10 10 10 9 9 9 8 7 6 5 5 7 8 9 8 10 11 12 11 12 13 11 12 13 14 14 16 15 16 16
28 28 25 23 22 17 15 14 13 11 11 11 12 12 12 12 12 12 11 10 9 9 7 6 6 8 10 10 10 10 12 12 11 10 11 12 12 14 15 16 16 16 16
26 26 24 22 19 16 15 14 14 14 13 11 10 11 12 14 13 11 11 10 9 10 10 9 9 10 11 13 14 13 13 12 10 10 12 13 13 14 16 15 15 15 16
23 23 22 20 18 16 15 15 14 13 12 11 10 9 10 9 10 11 11 11 11 11 11 10 9 11 13 13 14 13 13 10 9 11 12 14 13 15 16 14 14 14 15
23 22 21 20 19 17 15 14 12 11 11 11 11 11 9 9 10 11 11 12 12 11 10 10 10 13 15 15 15 14 13 10 9 11 12 14 14 15 14 14 14 14 14
23 23 21 20 18 16 16 14 14 12 12 11 11 10 9 9 9 9 10 10 11 11 10 11 12 15 17 17 16 15 15 12 11 11 13 13 13 14 13 13 13 13 13
24 23 21 18 17 16 16 15 14 13 12 12 11 11 10 8 8 10 11 12 12 12 12 13 15 17 18 17 16 14 13 11 12 11 12 12 12 12 12 13 13 13 13
21 23 19 18 17 16 16 15 15 13 12 12 13 13 12 10 10 12 13 13 13 13 13 17 19 20 20 18 17 17 12 12 11 12 11 11 11 11 12 12 12 12 12
21 20 18 17 17 17 16 15 14 12 11 13 14 13 15 15 14 16 16 15 15 15 16 19 21 20 19 18 16 13 12 11 11 11 11 10 10 10 11 11 12 11 12
21 19 17 17 17 16 15 14 14 12 13 15 14 14 15 16 16 19 19 17 17 17 18 17 19 19 20 19 17 15 10 11 11 11 10 10 9 10 10 11 11 11 11
21 18 17 17 17 16 14 14 14 14 15 15 13 14 13 19 21 20 18 18 18 18 19 18 16 16 18 18 17 13 12 12 12 12 11 11 11 11 11 11 11 12 12
21 21 18 18 16 15 14 13 13 14 14 14 15 13 14 18 21 20 17 17 18 19 20 17 16 15 13 15 14 13 12 12 15 13 12 12 11 11 11 10 11 11 12
20 21 21 19 17 15 13 13 13 15 14 14 12 13 12 17 17 19 17 17 16 18 19 16 14 14 13 12 11 10 10 15 14 12 12 13 12 12 11 11 11 11 11
19 20 20 19 17 17 16 14 14 14 13 12 13 11 8 15 15 15 13 14 15 11 17 17 16 13 9 10 11 8 13 16 13 11 11 12 12 11 11 11 11 11 10
16 21 21 20 18 17 17 14 14 16 16 13 12 12 6 11 13 13 13 11 13 13 12 16 14 10 7 6 11 12 15 16 12 10 10 10 10 10 10 10 10 10 9
18 23 25 18 19 18 17 13 15 14 18 17 10 9 7 10 9 7 12 11 13 12 14 17 15 12 9 10 11 9 9 9 9 10 8 8 8 7 7 7 8 8 8
14 18 18 13 19 19 16 19 17 16 15 14 12 10 9 12 13 10 9 10 9 13 12 13 16 12 8 8 11 10 8 7 11 8 7 6 5 6 6 6 5 6 6
11 11 11 13 16 18 19 16 18 15 16 11 10 9 9 12 10 9 12 10 8 10 10 10 12 10 8 9 8 8 9 8 7 6 5 5 5 5 6 7 8 7 8
16 12 13 13 17 17 17 19 16 14 13 13 12 11 10 10 9 7 11 11 11 7 13 12 11 11 11 13 13 6 8 11 10 6 6 8 8 7 8 9 10 10 10
19 15 14 15 17 21 18 16 15 15 14 15 13 12 12 10 9 9 8 8 10 7 12 10 9 10 14 9 12 12 9 9 8 9 10 13 13 12 13 13 12 13 14
23 19 18 18 22 25 21 18 19 17 15 15 13 12 12 12 9 9 8 9 8 8 12 10 13 16 13 8 5 9 13 14 15 13 14 14 14 13 16 16 17 18 19
23 19 18 19 22 23 20 17 17 12 16 17 14 16 12 13 10 10 9 8 10 10 12 11 9 10 13 11 10 12 13 14 18 17 16 14 13 11 16 19 22 22 22
31 21 19 20 23 22 21 20 20 20 23 19 18 17 14 12 11 9 9 7 8 10 11 14 11 11 10 9 14 16 16 19 17 16 16 14 14 14 16 20 22 23 22
28 24 18 20 23 23 25 22 20 20 21 17 14 14 14 11 10 8 10 7 5 7 8 13 15 14 14 13 14 13 14 18 16 14 14 14 15 16 16 20 18 18 17
32 25 19 21 23 26 26 23 19 19 17 17 18 17 16 15 12 9 7 9 9 8 6 6 7 13 16 14 15 12 17 14 11 9 10 11 15 15 16 18 16 15 14
28 30 24 23 24 26 27 25 22 19 20 21 19 18 16 14 13 11 9 7 7 8 7 5 6 8 14 18 16 18 19 16 11 11 9 12 16 17 17 17 16 12 10
Wind_Direction
148 147 148 143 136 134 137 137 132 128 130 115 111 104 97 93 95 100 107 111 116 118 129 148 156 152 144 138 120 111 108 101 88 88 84 77 72 76 81 84 86 88 90
147 148 149 144 140 135 140 144 134 127 122 117 113 103 98 98 103 103 106 110 114 120 125 136 139 144 143 139 128 111 98 90 88 93 87 79 76 81 83 87 89 91 92
149 147 147 146 147 144 137 135 132 128 126 121 108 105 105 110 106 109 113 109 102 106 115 127 139 136 132 134 132 120 105 99 98 96 85 77 78 80 82 83 87 91 94
152 148 149 151 151 148 136 131 130 129 126 118 115 118 115 112 103 99 99 98 97 95 98 105 122 135 133 134 132 131 125 110 101 92 82 81 77 79 82 85 89 92 95
153 147 147 147 145 143 137 134 127 124 123 121 119 118 114 105 104 104 94 94 89 91 97 107 110 133 138 137 133 125 123 116 110 93 88 87 83 83 88 88 90 92 93
151 146 143 144 143 141 135 128 125 119 121 122 113 106 105 102 103 102 98 91 87 85 94 105 119 130 139 134 130 119 111 115 99 88 86 88 82 81 89 90 90 89 88
150 147 147 148 144 138 132 129 124 122 119 113 105 94 89 92 106 111 105 102 95 91 92 105 112 120 134 134 129 122 121 116 99 93 87 85 87 87 89 84 84 85 82
153 150 150 150 144 141 138 131 124 121 117 112 104 94 85 87 95 108 105 99 89 84 92 110 117 125 135 139 130 120 117 114 100 86 81 78 82 79 80 80 82 85 85
156 154 153 151 147 144 140 132 126 122 117 111 106 94 90 91 99 107 107 100 96 88 94 111 124 128 132 131 132 128 129 109 89 81 76 75 77 75 83 81 79 79 80
156 155 157 155 151 147 141 135 128 124 118 117 112 100 93 97 106 110 109 103 97 90 89 104 114 120 123 125 125 121 117 106 94 87 78 75 68 69 76 73 78 77 77
161 161 162 157 155 150 145 139 131 127 124 117 112 100 98 101 110 113 112 108 101 98 89 88 95 103 115 122 120 121 108 106 97 82 76 70 65 72 77 78 80 79 80
171 165 166 163 162 156 151 145 134 133 130 127 114 100 93 103 113 112 111 104 100 102 92 94 99 103 106 114 110 112 114 102 87 80 79 78 76 81 81 84 83 82 83
177 172 170 168 166 164 156 150 138 141 140 131 128 125 104 101 106 113 120 115 100 102 98 109 98 98 88 95 109 106 110 96 82 79 82 82 81 84 86 85 84 80 80
183 185 174 174 175 169 165 155 147 146 131 126 128 114 110 119 115 121 117 124 119 102 110 120 110 97 103 87 95 96 90 82 70 77 86 91 93 94 90 88 87 86 83
190 191 177 180 180 182 170 162 160 147 144 135 117 105 101 113 124 134 117 136 125 124 120 123 109 119 135 113 108 90 81 73 71 73 86 93 97 98 100 100 96 89 84
165 178 181 179 186 191 170 167 167 147 144 132 114 111 98 103 126 129 133 137 125 113 129 127 121 124 140 111 96 67 69 74 81 87 87 93 89 90 91 86 84 88 88
169 168 160 163 188 199 176 170 166 153 144 137 124 123 107 114 107 111 145 136 139 134 119 123 148 123 123 99 81 67 91 84 84 68 84 86 86 83 79 79 77 75 76
207 187 176 172 171 183 182 168 161 149 139 133 137 131 127 109 118 139 131 123 129 134 119 154 129 143 133 121 102 95 108 110 75 74 86 87 74 72 67 66 69 67 68
226 222 192 186 184 200 195 174 181 160 147 163 149 146 129 132 133 102 122 130 129 132 128 125 162 136 136 117 112 103 103 112 79 91 81 92 90 76 82 82 77 77 77
230 236 217 196 194 204 210 176 183 165 176 163 151 142 142 138 132 128 118 141 126 123 161 135 144 154 136 126 129 118 130 111 107 105 101 99 94 98 97 93 88 86 90
233 238 227 206 195 201 204 192 177 171 170 163 160 148 147 146 131 117 122 123 140 148 163 176 122 140 139 120 137 134 119 113 119 106 101 99 99 97 97 93 94 95 98
233 234 226 211 205 197 202 195 187 181 170 169 172 151 146 146 142 142 138 113 109 125 132 155 161 135 139 146 121 137 121 106 105 102 103 109 106 106 103 104 104 105 104
236 238 224 207 209 198 203 197 196 193 188 178 173 157 155 153 149 156 145 146 118 115 147 149 157 169 168 176 157 130 117 105 102 99 97 109 114 111 111 106 107 110 108
233 240 237 216 206 205 206 207 209 204 205 185 182 174 169 175 161 157 152 154 132 105 128 175 181 182 175 167 152 145 134 112 99 82 89 104 113 119 121 113 114 116 114
232 237 239 225 208 207 213 211 211 204 205 191 192 190 181 175 168 166 173 162 139 124 132 131 128 173 181 164 161 154 139 119 116 108 101 108 108 117 119 123 126 123 115
229 238 238 226 217 210 213 214 211 205 201 201 199 199 192 181 174 178 181 182 153 140 126 125 126 151 177 181 175 151 146 143 145 137 137 137 128 131 135 138 140 134 124
Height
3182 3186 3190 3192 3195 3197 3198 3199 3199 3199 3200 3201 3201 3202 3202 3203 3204 3204 3204 3204 3205 3205 3205 3205 3207 3208 3210 3210 3211 3212 3212 3212 3211 3211 3211 3210 3209 3208 3208 3207 3207 3206 3206
3185 3187 3191 3194 3196 3198 3199 3200 3201 3201 3202 3203 3204 3205 3205 3205 3206 3206 3206 3206 3206 3206 3206 3205 3206 3207 3209 3210 3211 3212 3212 3213 3213 3214 3213 3213 3212 3211 3210 3209 3208 3208 3208
3187 3189 3193 3196 3198 3199 3201 3201 3202 3203 3204 3205 3206 3206 3207 3208 3208 3208 3208 3207 3207 3207 3207 3207 3207 3207 3209 3210 3212 3213 3212 3214 3215 3215 3214 3214 3213 3213 3212 3211 3211 3211 3211
3189 3192 3195 3197 3199 3200 3202 3203 3204 3205 3206 3207 3207 3208 3208 3208 3209 3209 3209 3209 3209 3208 3207 3208 3208 3209 3210 3212 3214 3216 3217 3216 3217 3216 3216 3216 3215 3215 3214 3214 3214 3214 3213
3191 3194 3196 3198 3200 3201 3203 3204 3205 3207 3207 3208 3209 3209 3209 3209 3209 3210 3210 3209 3209 3209 3208 3209 3209 3210 3211 3214 3216 3218 3219 3218 3219 3218 3218 3217 3217 3217 3217 3217 3216 3215 3215
3192 3195 3198 3200 3201 3203 3204 3205 3207 3208 3208 3209 3209 3210 3209 3209 3210 3210 3211 3211 3211 3211 3211 3210 3210 3211 3213 3216 3218 3219 3220 3220 3221 3220 3219 3220 3220 3219 3219 3218 3217 3217 3217
3194 3197 3199 3201 3203 3204 3206 3207 3208 3209 3209 3210 3210 3210 3209 3210 3210 3210 3211 3212 3212 3212 3211 3211 3212 3213 3216 3218 3219 3221 3221 3222 3222 3222 3222 3221 3221 3220 3220 3220 3220 3220 3219
3197 3199 3201 3203 3205 3206 3207 3208 3210 3210 3211 3211 3211 3211 3210 3210 3210 3212 3213 3214 3214 3214 3213 3213 3214 3214 3216 3219 3221 3223 3223 3224 3224 3224 3223 3223 3223 3223 3223 3223 3222 3222 3221
3199 3201 3203 3205 3206 3208 3209 3210 3211 3211 3212 3212 3212 3213 3212 3211 3212 3213 3214 3216 3216 3216 3215 3215 3215 3217 3218 3221 3224 3225 3225 3225 3225 3225 3225 3225 3225 3225 3225 3225 3225 3224 3223
3199 3202 3205 3207 3208 3209 3211 3211 3212 3213 3214 3214 3214 3214 3213 3213 3214 3216 3217 3218 3218 3218 3218 3219 3219 3221 3222 3223 3225 3226 3227 3227 3226 3227 3227 3227 3228 3227 3228 3227 3226 3226 3225
3199 3202 3206 3208 3209 3210 3212 3212 3214 3214 3216 3216 3216 3216 3215 3215 3216 3219 3219 3219 3220 3221 3222 3222 3223 3223 3224 3225 3226 3227 3228 3227 3227 3228 3229 3229 3229 3230 3229 3229 3228 3227 3227
3199 3202 3206 3209 3210 3211 3213 3213 3215 3216 3217 3218 3219 3219 3218 3218 3218 3220 3221 3222 3222 3224 3224 3225 3225 3226 3227 3228 3228 3228 3228 3229 3229 3230 3231 3231 3231 3231 3231 3230 3230 3229 3229
3200 3203 3206 3209 3211 3213 3214 3215 3216 3217 3218 3220 3221 3221 3221 3221 3220 3222 3222 3224 3225 3226 3226 3227 3228 3227 3228 3230 3231 3231 3231 3231 3231 3232 3233 3232 3233 3233 3233 3232 3232 3232 3232
3200 3204 3208 3210 3212 3214 3215 3216 3218 3218 3220 3221 3222 3223 3222 3223 3223 3223 3226 3227 3228 3229 3228 3229 3230 3231 3231 3232 3233 3233 3233 3232 3233 3233 3234 3234 3235 3235 3234 3234 3233 3233 3234
3200 3203 3208 3210 3212 3213 3216 3217 3218 3219 3222 3221 3222 3224 3224 3224 3224 3225 3227 3228 3229 3230 3231 3230 3232 3233 3232 3234 3235 3235 3233 3234 3235 3236 3236 3237 3237 3237 3236 3236 3235 3235 3235
3203 3204 3208 3210 3212 3214 3216 3218 3219 3221 3223 3222 3223 3225 3226 3225 3227 3227 3227 3229 3230 3232 3231 3230 3232 3233 3234 3236 3236 3236 3236 3235 3237 3237 3238 3238 3239 3239 3238 3238 3237 3236 3235
3203 3205 3208 3210 3212 3215 3215 3218 3220 3223 3223 3223 3224 3226 3226 3227 3228 3228 3229 3229 3230 3233 3232 3233 3233 3234 3234 3235 3236 3237 3237 3238 3239 3239 3239 3240 3240 3240 3240 3239 3239 3238 3237
3202 3203 3207 3209 3212 3215 3215 3218 3221 3222 3222 3223 3225 3227 3227 3229 3230 3231 3230 3229 3230 3231 3233 3233 3235 3237 3236 3235 3237 3240 3239 3240 3241 3241 3241 3241 3241 3240 3240 3240 3240 3240 3239
3204 3205 3207 3210 3213 3214 3217 3219 3221 3223 3223 3226 3227 3228 3229 3229 3231 3231 3231 3231 3231 3231 3233 3235 3236 3237 3238 3239 3240 3240 3241 3241 3242 3243 3242 3242 3242 3242 3242 3242 3242 3241 3241
3204 3206 3209 3211 3213 3214 3216 3219 3221 3222 3224 3227 3228 3229 3230 3229 3231 3233 3232 3232 3232 3233 3233 3234 3236 3237 3239 3240 3241 3241 3241 3242 3243 3244 3244 3243 3244 3243 3243 3244 3243 3243 3243
3204 3206 3208 3211 3213 3214 3216 3218 3221 3224 3227 3228 3229 3230 3230 3230 3232 3233 3233 3234 3233 3233 3233 3235 3237 3238 3239 3240 3242 3242 3242 3242 3243 3244 3246 3246 3245 3246 3245 3246 3246 3245 3246
3202 3205 3208 3210 3212 3214 3217 3220 3221 3224 3227 3228 3229 3230 3230 3231 3232 3234 3235 3235 3235 3234 3234 3235 3237 3239 3241 3242 3242 3243 3244 3245 3245 3246 3246 3247 3247 3247 3246 3247 3248 3248 3249
3199 3204 3207 3210 3212 3214 3216 3219 3220 3222 3225 3227 3228 3230 3231 3233 3233 3235 3235 3236 3236 3236 3236 3237 3238 3239 3241 3242 3243 3244 3245 3246 3247 3247 3247 3248 3248 3248 3249 3250 3251 3251 3252
3197 3202 3206 3209 3212 3213 3215 3217 3220 3222 3224 3227 3230 3230 3231 3233 3233 3235 3236 3237 3237 3236 3237 3237 3238 3239 3241 3242 3243 3244 3247 3247 3248 3249 3248 3249 3249 3250 3252 3252 3254 3254 3255
3196 3199 3203 3207 3210 3212 3214 3216 3219 3222 3225 3226 3228 3230 3231 3233 3233 3234 3236 3237 3238 3238 3238 3237 3237 3238 3240 3242 3243 3245 3248 3249 3250 3250 3250 3251 3251 3252 3254 3254 3256 3257 3258
3191 3195 3199 3203 3207 3210 3212 3215 3218 3222 3224 3226 3227 3230 3230 3231 3233 3234 3236 3237 3238 3239 3239 3239 3238 3239 3240 3242 3244 3245 3247 3248 3250 3250 3251 3252 3252 3253 3254 3256 3257 3258 3259